Showing default

WEINA 2, 47303

Orbit data source: Space-Track

WEINA 2, 47303 is a payload satellite owned by CASC (CN) in SSO that was launched on Sun, 27 Dec 2020 UTC via a CHANG ZHENG 4C launch vehicle from the Jiuquan Satellite Launch Center, China (JSC). Payload-class satellites include a variety of spacecraft equipped with specific instruments for various scientific and technological missions. These include communications satellites like Starlink; space stations such as the ISS; scientific satellites like the Hubble; Earth observation satellites from companies like Planet Labs, Umbra, and HawkEye 360; GPS; miniature CubeSats for education and research; and military/defense satellites.

Loading next visibility...
Identifier
47303, 2020-103B
Orbit
SSO
Country
Flag of CNCN / PRC
Related business
Manufacturer
CAST
Mission
Operational Defense Technology
Bus & Motor
Unknown
Mass
~10 kg wet, ~10 kg dry
Launch date (UTC)
2020-12-27 (5 years ago)
Launch vehicle
CHANG ZHENG 4C
Launch site
Jiuquan Satellite Launch Center, China (JSC)
Object type
Payload
Rocket body
Debris
Shape & HBR
Box, Unknown HBR
Radar Cross Section
0.035 m², Medium (>0.1 m² and < 1m²)

Expand to show TLE details & history
Last TLE update: 22 hours ago

TLE from 22 hours ago
0 WEINA 2
1 47303U 20103B   26172.53320918  .00000613  00000-0  12307-3 0  9998
2 47303  98.0530  61.6279 0002307 146.8694 213.2654 14.65047429292362
Epoch: 2026-06-21T12:47Z
TLE epoch observation values (Epoch: 2026-06-21T12:47:49.273Z)
Latitude
-0.00002°
Longitude
-40.05952°
Altitude
681.281 km
Speed
7.515 km/s
True Right ascension
04h 06m 30s
True Declination
0° 00' 00"
Sunlit
Object was in daylight at epoch
Visualization orbit readout
Latitude
Unknown
Longitude
Unknown
Altitude
Unknown
Speed
Unknown
Apparent Right ascension
Unknown
Apparent Declination
Unknown
Sunlit
N/A
Visualization observer readout
Local Sidereal Time
21:29:55
Azimuth
Unknown
Elevation
Unknown
Doppler factor
Unknown
Orbital elements
Apogee altitude
675.618 km
Perigee altitude
672.364 km
Semi-major axis
7,052.128 km
Eccentricity
0.00023
Inclination
98.053°
RAAN
61.6279°
Arg. of periapsis
146.8694°
True anomaly
213.2509°
Mean anomaly
213.2654°
Eccentric anomaly
213.25815°
Mean motion
3.66491 °/min
Orbital period
98.23 mins
BSTAR
0.00012307
Loading maneuver chart data...
Computing Atmospheric mass density...
Loading historical data...
Loading historical data...
Loading historical data...
Loading historical data...
Loading historical data...
Loading historical data...
Loading historical data...
Other satellites on launch #103 in the year 2020 (2020-12-27 UTC)

Documentation

Showing up to 5 results
|